Time,TemperatureF,DewpointF,PressureIn,WindDirection,WindDirectionDegrees,WindSpeedMPH,WindSpeedGustMPH,Humidity,HourlyPrecipIn,Conditions,Clouds,dailyrainin,SoftwareType,DateUTC
2013-07-12 00:10:00,65.7,60.0,29.99,WSW,240,1.0,0.0,82,0.00,,,0.00,WeatherDisplay:10.37,2013-07-12 04:10:00,
2013-07-12 00:20:00,65.3,60.0,30.00,WSW,247,0.0,0.0,83,0.00,,,0.00,WeatherDisplay:10.37,2013-07-12 04:20:00,
2013-07-12 00:30:00,64.9,59.7,30.00,WSW,244,0.0,0.0,83,0.00,,,0.00,WeatherDisplay:10.37,2013-07-12 04:30:00,
2013-07-12 00:40:00,64.8,59.5,30.00,WSW,241,1.0,0.0,83,0.00,,,0.00,WeatherDisplay:10.37,2013-07-12 04:40:00,
2013-07-12 00:50:00,64.8,59.8,30.00,SW,226,0.0,0.0,84,0.00,,,0.00,WeatherDisplay:10.37,2013-07-12 04:50:00,
2013-07-12 00:59:00,64.6,59.3,30.00,SW,228,1.0,0.0,83,0.00,,,0.00,WeatherDisplay:10.37,2013-07-12 04:59:00,
2013-07-12 01:10:00,64.4,59.1,30.00,SW,231,0.0,0.0,83,0.00,,,0.00,WeatherDisplay:10.37,2013-07-12 05:10:00,
2013-07-12 01:20:00,64.2,59.3,30.01,WSW,257,0.0,0.0,84,0.00,,,0.00,WeatherDisplay:10.37,2013-07-12 05:20:00,
2013-07-12 01:30:00,64.0,59.1,30.01,WSW,245,1.0,0.0,84,0.00,,,0.00,WeatherDisplay:10.37,2013-07-12 05:30:00,
2013-07-12 01:40:00,63.9,58.9,30.01,WSW,244,1.0,0.0,84,0.00,,,0.00,WeatherDisplay:10.37,2013-07-12 05:40:00,
2013-07-12 01:50:00,63.5,58.6,30.01,WSW,244,3.0,0.0,84,0.00,,,0.00,WeatherDisplay:10.37,2013-07-12 05:50:00,
2013-07-12 01:59:00,63.3,58.4,30.01,SW,218,2.0,0.0,84,0.00,,,0.00,WeatherDisplay:10.37,2013-07-12 05:59:00,
2013-07-12 02:10:00,63.3,58.4,30.01,WSW,246,0.0,0.0,84,0.00,,,0.00,WeatherDisplay:10.37,2013-07-12 06:10:00,
2013-07-12 02:20:00,63.3,58.4,30.01,WSW,255,1.0,0.0,84,0.00,,,0.00,WeatherDisplay:10.37,2013-07-12 06:20:00,
2013-07-12 02:30:00,63.1,58.2,30.01,WSW,251,2.0,0.0,84,0.00,,,0.00,WeatherDisplay:10.37,2013-07-12 06:30:00,
2013-07-12 02:40:00,63.0,58.0,30.01,WSW,256,0.0,0.0,84,0.00,,,0.00,WeatherDisplay:10.37,2013-07-12 06:40:00,
2013-07-12 02:50:00,63.0,58.0,30.02,WSW,255,0.0,0.0,84,0.00,,,0.00,WeatherDisplay:10.37,2013-07-12 06:50:00,
2013-07-12 02:59:00,62.8,57.9,30.01,WSW,257,1.0,0.0,84,0.00,,,0.00,WeatherDisplay:10.37,2013-07-12 06:59:00,
2013-07-12 03:10:00,62.6,57.7,30.02,SW,224,1.0,0.0,84,0.00,,,0.00,WeatherDisplay:10.37,2013-07-12 07:10:00,
2013-07-12 03:20:00,62.6,57.7,30.02,SW,225,0.0,0.0,84,0.00,,,0.00,WeatherDisplay:10.37,2013-07-12 07:20:00,
2013-07-12 03:30:00,62.6,58.0,30.03,SW,224,0.0,0.0,85,0.00,,,0.00,WeatherDisplay:10.37,2013-07-12 07:30:00,
2013-07-12 03:40:00,62.6,58.0,30.03,West,263,0.0,0.0,85,0.00,,,0.00,WeatherDisplay:10.37,2013-07-12 07:40:00,
2013-07-12 03:50:00,62.6,57.7,30.04,WSW,246,0.0,0.0,84,0.00,,,0.00,WeatherDisplay:10.37,2013-07-12 07:50:00,
2013-07-12 03:59:00,62.6,57.7,30.03,WSW,247,0.0,0.0,84,0.00,,,0.00,WeatherDisplay:10.37,2013-07-12 07:59:00,
2013-07-12 04:10:00,62.6,57.7,30.04,SW,232,0.0,0.0,84,0.00,,,0.00,WeatherDisplay:10.37,2013-07-12 08:10:00,
2013-07-12 04:20:00,62.6,57.7,30.04,SW,226,0.0,0.0,84,0.00,,,0.00,WeatherDisplay:10.37,2013-07-12 08:20:00,
2013-07-12 04:30:00,62.6,58.0,30.05,WNW,300,0.0,0.0,85,0.00,,,0.00,WeatherDisplay:10.37,2013-07-12 08:30:00,
2013-07-12 04:40:00,62.8,58.2,30.06,NW,324,0.0,0.0,85,0.00,,,0.00,WeatherDisplay:10.37,2013-07-12 08:40:00,
2013-07-12 04:50:00,62.8,58.2,30.06,WSW,240,0.0,0.0,85,0.00,,,0.00,WeatherDisplay:10.37,2013-07-12 08:50:00,
2013-07-12 04:59:00,62.8,58.2,30.06,SW,229,0.0,0.0,85,0.00,,,0.00,WeatherDisplay:10.37,2013-07-12 08:59:00,
2013-07-12 05:10:00,62.8,58.2,30.06,SW,230,0.0,0.0,85,0.00,,,0.00,WeatherDisplay:10.37,2013-07-12 09:10:00,
2013-07-12 05:20:00,62.8,58.2,30.07,SW,235,0.0,0.0,85,0.00,,,0.00,WeatherDisplay:10.37,2013-07-12 09:20:00,
2013-07-12 05:30:00,62.8,58.2,30.07,WSW,253,0.0,0.0,85,0.00,,,0.00,WeatherDisplay:10.37,2013-07-12 09:30:00,
2013-07-12 05:40:00,62.8,58.2,30.07,West,264,0.0,0.0,85,0.00,,,0.00,WeatherDisplay:10.37,2013-07-12 09:40:00,
2013-07-12 05:50:00,62.8,58.2,30.08,SW,224,0.0,0.0,85,0.00,,,0.00,WeatherDisplay:10.37,2013-07-12 09:50:00,
2013-07-12 05:59:00,62.8,58.2,30.08,South,191,3.0,0.0,85,0.00,,,0.00,WeatherDisplay:10.37,2013-07-12 09:59:00,
2013-07-12 06:10:00,62.8,58.2,30.08,SW,232,0.0,0.0,85,0.00,,,0.00,WeatherDisplay:10.37,2013-07-12 10:10:00,
2013-07-12 06:20:00,62.8,58.2,30.08,West,268,0.0,0.0,85,0.00,,,0.00,WeatherDisplay:10.37,2013-07-12 10:20:00,
2013-07-12 06:30:00,62.8,58.2,30.09,WNW,283,0.0,0.0,85,0.00,,,0.00,WeatherDisplay:10.37,2013-07-12 10:30:00,
2013-07-12 06:40:00,62.8,58.2,30.09,West,259,0.0,0.0,85,0.00,,,0.00,WeatherDisplay:10.37,2013-07-12 10:40:00,
2013-07-12 06:50:00,63.0,58.0,30.10,WSW,251,0.0,0.0,84,0.00,,,0.00,WeatherDisplay:10.37,2013-07-12 10:50:00,
2013-07-12 06:59:00,63.1,58.6,30.10,WNW,300,0.0,0.0,85,0.00,,,0.00,WeatherDisplay:10.37,2013-07-12 10:59:00,
2013-07-12 07:10:00,63.5,58.9,30.10,WSW,247,1.0,0.0,85,0.00,,,0.00,WeatherDisplay:10.37,2013-07-12 11:10:00,
2013-07-12 07:20:00,63.7,58.8,30.11,WSW,242,1.0,0.0,84,0.00,,,0.00,WeatherDisplay:10.37,2013-07-12 11:20:00,
2013-07-12 07:30:00,64.2,58.9,30.11,WSW,237,0.0,0.0,83,0.00,,,0.00,WeatherDisplay:10.37,2013-07-12 11:30:00,
2013-07-12 07:40:00,64.8,59.2,30.11,West,264,1.0,0.0,82,0.00,,,0.00,WeatherDisplay:10.37,2013-07-12 11:40:00,
2013-07-12 07:50:00,65.8,60.2,30.11,West,273,2.0,0.0,82,0.00,,,0.00,WeatherDisplay:10.37,2013-07-12 11:50:00,
2013-07-12 07:59:00,65.7,59.7,30.12,West,259,0.0,0.0,81,0.00,,,0.00,WeatherDisplay:10.37,2013-07-12 11:59:00,
2013-07-12 08:10:00,65.7,59.7,30.12,SW,225,1.0,0.0,81,0.00,,,0.00,WeatherDisplay:10.37,2013-07-12 12:10:00,
2013-07-12 08:20:00,65.4,59.0,30.13,WSW,237,5.0,0.0,80,0.00,,,0.00,WeatherDisplay:10.37,2013-07-12 12:20:00,
2013-07-12 08:30:00,65.3,59.3,30.13,WSW,245,1.0,0.0,81,0.00,,,0.00,WeatherDisplay:10.37,2013-07-12 12:30:00,
2013-07-12 08:40:00,65.7,59.7,30.13,WSW,257,1.0,0.0,81,0.00,,,0.00,WeatherDisplay:10.37,2013-07-12 12:40:00,
2013-07-12 08:50:00,65.8,59.5,30.13,WSW,257,0.0,0.0,80,0.00,,,0.00,WeatherDisplay:10.37,2013-07-12 12:50:00,
2013-07-12 08:59:00,66.2,59.8,30.14,West,267,5.0,0.0,80,0.00,,,0.00,WeatherDisplay:10.37,2013-07-12 12:59:00,
2013-07-12 09:10:00,66.4,60.0,30.14,WNW,284,0.0,0.0,80,0.00,,,0.00,WeatherDisplay:10.37,2013-07-12 13:10:00,
2013-07-12 09:20:00,66.4,60.0,30.14,West,280,1.0,0.0,80,0.00,,,0.00,WeatherDisplay:10.37,2013-07-12 13:20:00,
2013-07-12 09:30:00,66.4,60.0,30.14,WSW,255,3.0,0.0,80,0.00,,,0.00,WeatherDisplay:10.37,2013-07-12 13:30:00,
2013-07-12 09:40:00,66.6,60.2,30.14,SW,228,6.0,0.0,80,0.00,,,0.00,WeatherDisplay:10.37,2013-07-12 13:40:00,
2013-07-12 09:50:00,66.9,60.5,30.14,West,279,0.0,0.0,80,0.00,,,0.00,WeatherDisplay:10.37,2013-07-12 13:50:00,
2013-07-12 10:00:00,67.6,60.9,30.15,West,279,2.0,0.0,79,0.00,,,0.00,WeatherDisplay:10.37,2013-07-12 14:00:00,
2013-07-12 10:10:00,68.5,61.0,30.15,WSW,254,6.0,0.0,77,0.00,,,0.00,WeatherDisplay:10.37,2013-07-12 14:10:00,
2013-07-12 10:20:00,68.9,61.1,30.15,WSW,250,1.0,0.0,76,0.00,,,0.00,WeatherDisplay:10.37,2013-07-12 14:20:00,
2013-07-12 10:30:00,69.4,61.9,30.16,West,267,0.0,0.0,77,0.00,,,0.00,WeatherDisplay:10.37,2013-07-12 14:30:00,
2013-07-12 10:40:00,69.9,62.4,30.17,NNW,341,1.0,0.0,77,0.00,,,0.00,WeatherDisplay:10.37,2013-07-12 14:40:00,
2013-07-12 10:50:00,70.7,62.8,30.17,West,274,5.0,0.0,76,0.00,,,0.00,WeatherDisplay:10.37,2013-07-12 14:50:00,
2013-07-12 10:59:00,71.0,61.9,30.17,WSW,258,5.0,0.0,73,0.00,,,0.00,WeatherDisplay:10.37,2013-07-12 14:59:00,
2013-07-12 11:10:00,71.2,62.1,30.17,WSW,255,0.0,0.0,73,0.00,,,0.00,WeatherDisplay:10.37,2013-07-12 15:10:00,
2013-07-12 11:20:00,71.6,62.5,30.17,West,272,3.0,0.0,73,0.00,,,0.00,WeatherDisplay:10.37,2013-07-12 15:20:00,
2013-07-12 11:30:00,71.4,61.9,30.17,West,261,2.0,0.0,72,0.00,,,0.00,WeatherDisplay:10.37,2013-07-12 15:30:00,
2013-07-12 11:40:00,71.5,62.4,30.17,WNW,290,0.0,0.0,73,0.00,,,0.00,WeatherDisplay:10.37,2013-07-12 15:40:00,
2013-07-12 11:50:00,71.6,62.5,30.17,SW,220,1.0,0.0,73,0.00,,,0.00,WeatherDisplay:10.37,2013-07-12 15:50:00,
2013-07-12 12:00:00,72.0,63.2,30.17,NNE,30,2.0,0.0,74,0.00,,,0.00,WeatherDisplay:10.37,2013-07-12 16:00:00,
2013-07-12 12:10:00,72.1,63.8,30.17,NNE,12,0.0,0.0,75,0.00,,,0.00,WeatherDisplay:10.37,2013-07-12 16:10:00,
2013-07-12 12:20:00,72.5,63.7,30.17,North,349,0.0,0.0,74,0.00,,,0.00,WeatherDisplay:10.37,2013-07-12 16:20:00,
2013-07-12 12:30:00,72.9,64.1,30.17,WSW,255,3.0,0.0,74,0.00,,,0.00,WeatherDisplay:10.37,2013-07-12 16:30:00,
2013-07-12 12:40:00,73.5,63.9,30.17,SE,136,6.0,0.0,72,0.00,,,0.00,WeatherDisplay:10.37,2013-07-12 16:40:00,
2013-07-12 12:50:00,74.2,64.2,30.17,NW,314,5.0,0.0,71,0.00,,,0.00,WeatherDisplay:10.37,2013-07-12 16:50:00,
2013-07-12 12:59:00,74.8,65.2,30.17,WNW,286,3.0,0.0,72,0.00,,,0.00,WeatherDisplay:10.37,2013-07-12 16:59:00,
2013-07-12 13:10:00,74.8,64.0,30.17,SW,233,0.0,0.0,69,0.00,,,0.00,WeatherDisplay:10.37,2013-07-12 17:10:00,
2013-07-12 13:30:00,74.8,64.0,30.17,NW,318,0.0,0.0,69,0.00,,,0.00,WeatherDisplay:10.37,2013-07-12 17:30:00,
2013-07-12 13:40:00,74.8,64.8,30.17,ENE,65,2.0,0.0,71,0.00,,,0.00,WeatherDisplay:10.37,2013-07-12 17:40:00,
2013-07-12 13:50:00,75.6,65.1,30.17,SE,141,2.0,0.0,70,0.00,,,0.00,WeatherDisplay:10.37,2013-07-12 17:50:00,
2013-07-12 13:59:00,75.6,64.7,30.17,NE,45,2.0,0.0,69,0.00,,,0.00,WeatherDisplay:10.37,2013-07-12 17:59:00,
2013-07-12 14:10:00,75.2,64.7,30.17,ENE,77,0.0,0.0,70,0.00,,,0.00,WeatherDisplay:10.37,2013-07-12 18:10:00,
2013-07-12 14:20:00,74.9,64.8,30.17,SE,128,3.0,0.0,71,0.00,,,0.00,WeatherDisplay:10.37,2013-07-12 18:20:00,
2013-07-12 14:30:00,75.3,64.4,30.17,ESE,123,2.0,0.0,69,0.00,,,0.00,WeatherDisplay:10.37,2013-07-12 18:30:00,
2013-07-12 14:40:00,75.4,64.9,30.17,East,91,0.0,0.0,70,0.00,,,0.00,WeatherDisplay:10.37,2013-07-12 18:40:00,
2013-07-12 14:50:00,75.0,64.1,30.17,SE,127,0.0,0.0,69,0.00,,,0.00,WeatherDisplay:10.37,2013-07-12 18:50:00,
2013-07-12 14:59:00,75.7,64.8,30.17,ESE,119,0.0,0.0,69,0.00,,,0.00,WeatherDisplay:10.37,2013-07-12 18:59:00,
2013-07-12 15:20:00,76.1,64.3,30.17,ESE,121,0.0,0.0,67,0.00,,,0.00,WeatherDisplay:10.37,2013-07-12 19:20:00,
2013-07-12 15:30:00,76.1,64.8,30.17,SW,215,0.0,0.0,68,0.00,,,0.00,WeatherDisplay:10.37,2013-07-12 19:30:00,
2013-07-12 15:40:00,76.1,64.8,30.17,NNE,17,0.0,0.0,68,0.00,,,0.00,WeatherDisplay:10.37,2013-07-12 19:40:00,
2013-07-12 15:50:00,76.1,64.8,30.17,ESE,105,0.0,0.0,68,0.00,,,0.00,WeatherDisplay:10.37,2013-07-12 19:50:00,
2013-07-12 15:59:00,76.1,64.3,30.17,NE,34,0.0,0.0,67,0.00,,,0.00,WeatherDisplay:10.37,2013-07-12 19:59:00,
2013-07-12 16:10:00,75.9,64.2,30.17,NE,39,0.0,0.0,67,0.00,,,0.00,WeatherDisplay:10.37,2013-07-12 20:10:00,
2013-07-12 16:30:00,76.1,64.8,30.17,SE,128,0.0,0.0,68,0.00,,,0.00,WeatherDisplay:10.37,2013-07-12 20:30:00,
2013-07-12 16:59:00,79.2,66.9,30.17,ESE,113,0.0,0.0,66,0.00,,,0.00,WeatherDisplay:10.37,2013-07-12 20:59:00,
2013-07-12 17:10:00,84.5,68.6,30.17,ESE,118,0.0,0.0,59,0.00,,,0.00,WeatherDisplay:10.37,2013-07-12 21:10:00,
2013-07-12 17:30:00,86.5,69.0,30.17,SE,128,0.0,0.0,56,0.00,,,0.00,WeatherDisplay:10.37,2013-07-12 21:30:00,
2013-07-12 17:40:00,89.6,70.2,30.17,SE,128,0.0,0.0,53,0.00,,,0.00,WeatherDisplay:10.37,2013-07-12 21:40:00,
2013-07-12 17:50:00,91.0,69.2,30.17,ESE,120,0.0,0.0,49,0.00,,,0.00,WeatherDisplay:10.37,2013-07-12 21:50:00,
2013-07-12 17:59:00,90.7,68.9,30.17,ESE,122,0.0,0.0,49,0.00,,,0.00,WeatherDisplay:10.37,2013-07-12 21:59:00,
2013-07-12 18:10:00,89.0,68.0,30.17,East,101,0.0,0.0,50,0.00,,,0.00,WeatherDisplay:10.37,2013-07-12 22:10:00,
2013-07-12 18:20:00,88.3,67.3,30.17,ESE,114,0.0,0.0,50,0.00,,,0.00,WeatherDisplay:10.37,2013-07-12 22:20:00,
2013-07-12 18:30:00,84.5,65.5,30.17,East,97,0.0,0.0,53,0.00,,,0.00,WeatherDisplay:10.37,2013-07-12 22:30:00,
2013-07-12 18:50:00,77.9,63.8,30.18,NE,38,0.0,0.0,62,0.00,,,0.00,WeatherDisplay:10.37,2013-07-12 22:50:00,
2013-07-12 18:59:00,76.5,63.4,30.18,ESE,111,0.0,0.0,64,0.00,,,0.00,WeatherDisplay:10.37,2013-07-12 22:59:00,
2013-07-12 19:20:00,74.2,62.6,30.19,NE,38,0.0,0.0,67,0.00,,,0.00,WeatherDisplay:10.37,2013-07-12 23:20:00,
2013-07-12 19:30:00,73.5,62.7,30.18,NE,38,0.0,0.0,69,0.00,,,0.00,WeatherDisplay:10.37,2013-07-12 23:30:00,
2013-07-12 19:40:00,72.5,62.5,30.19,NE,38,0.0,0.0,71,0.00,,,0.00,WeatherDisplay:10.37,2013-07-12 23:40:00,
2013-07-12 19:50:00,71.5,62.0,30.19,NE,38,0.0,0.0,72,0.00,,,0.00,WeatherDisplay:10.37,2013-07-12 23:50:00,
2013-07-12 19:59:00,70.9,62.6,30.19,NE,38,0.0,0.0,75,0.00,,,0.00,WeatherDisplay:10.37,2013-07-12 23:59:00,
2013-07-12 20:10:00,71.1,63.9,30.19,NE,38,0.0,0.0,78,0.00,,,0.00,WeatherDisplay:10.37,2013-07-13 00:10:00,
2013-07-12 20:20:00,70.7,63.9,30.19,NE,38,0.0,0.0,79,0.00,,,0.00,WeatherDisplay:10.37,2013-07-13 00:20:00,
2013-07-12 20:30:00,70.3,63.2,30.19,NE,38,0.0,0.0,78,0.00,,,0.00,WeatherDisplay:10.37,2013-07-13 00:30:00,
2013-07-12 20:40:00,70.2,63.3,30.19,NE,38,0.0,0.0,79,0.00,,,0.00,WeatherDisplay:10.37,2013-07-13 00:40:00,
2013-07-12 20:50:00,69.8,63.0,30.20,NE,38,0.0,0.0,79,0.00,,,0.00,WeatherDisplay:10.37,2013-07-13 00:50:00,
2013-07-12 20:59:00,69.3,62.1,30.21,NE,38,0.0,0.0,78,0.00,,,0.00,WeatherDisplay:10.37,2013-07-13 00:59:00,
2013-07-12 21:10:00,68.9,62.1,30.21,NE,38,0.0,0.0,79,0.00,,,0.00,WeatherDisplay:10.37,2013-07-13 01:10:00,
2013-07-12 21:20:00,68.7,62.3,30.21,NE,38,0.0,0.0,80,0.00,,,0.00,WeatherDisplay:10.37,2013-07-13 01:20:00,
2013-07-12 21:30:00,68.4,61.6,30.21,NE,38,0.0,0.0,79,0.00,,,0.00,WeatherDisplay:10.37,2013-07-13 01:30:00,
2013-07-12 21:40:00,67.8,60.7,30.21,NE,38,0.0,0.0,78,0.00,,,0.00,WeatherDisplay:10.37,2013-07-13 01:40:00,
2013-07-12 21:50:00,67.1,60.4,30.21,NE,38,0.0,0.0,79,0.00,,,0.00,WeatherDisplay:10.37,2013-07-13 01:50:00,
2013-07-12 21:59:00,66.6,59.8,30.21,NE,38,0.0,0.0,79,0.00,,,0.00,WeatherDisplay:10.37,2013-07-13 01:59:00,
2013-07-12 22:10:00,65.8,59.1,30.21,NE,38,0.0,0.0,79,0.00,,,0.00,WeatherDisplay:10.37,2013-07-13 02:10:00,
2013-07-12 22:30:00,65.3,59.0,30.22,NE,38,0.0,0.0,80,0.00,,,0.00,WeatherDisplay:10.37,2013-07-13 02:30:00,
2013-07-12 22:40:00,64.9,58.6,30.22,NE,38,0.0,0.0,80,0.00,,,0.00,WeatherDisplay:10.37,2013-07-13 02:40:00,
2013-07-12 22:50:00,64.8,58.8,30.22,NE,38,0.0,0.0,81,0.00,,,0.00,WeatherDisplay:10.37,2013-07-13 02:50:00,
2013-07-12 22:59:00,64.6,58.6,30.23,NE,38,0.0,0.0,81,0.00,,,0.00,WeatherDisplay:10.37,2013-07-13 02:59:00,
2013-07-12 23:10:00,64.3,58.3,30.23,NE,38,0.0,0.0,81,0.00,,,0.00,WeatherDisplay:10.37,2013-07-13 03:10:00,
2013-07-12 23:20:00,64.0,58.4,30.23,NE,38,0.0,0.0,82,0.00,,,0.00,WeatherDisplay:10.37,2013-07-13 03:20:00,
2013-07-12 23:30:00,64.0,58.4,30.25,NE,38,0.0,0.0,82,0.00,,,0.00,WeatherDisplay:10.37,2013-07-13 03:30:00,
2013-07-12 23:50:00,63.5,57.9,30.25,NE,38,0.0,0.0,82,0.00,,,0.00,WeatherDisplay:10.37,2013-07-13 03:50:00,